Location: Dob?e?
(49.9411°N, 15.1496°E)
Time: 02:49:21
(UTC+00:00)

X-37B - Pass Details

Date: 04 August 2021
Orbit: 381 x 393 km, 45.0° (Epoch: 29 August)

Event Time Altitude Azimuth Distance (km) Brightness Sun altitude
Exits shadow 02:16:23 14° 195° (SSW) 1,170 2.5 -10.8°
Maximum altitude 02:17:54 19° 160° (SSE) 975 2.4 -10.6°
Drops below altitude 10° 02:20:14 10° 111° (ESE) 1,398 3.7 -10.3°
Sets 02:22:39 0° 93° (E) 2,254 5.2 -10.1°
